Вернуться в каталог

CHUANG XIN 16A

CX-16A

АктивенНаукаVLEO
NORAD 53586·PAYLOAD·🇨🇳 China

Запущен Aug 23, 2022 с Xichang Satellite Launch Center

Loading…

Ближайшие Пролёты (ближайшие 24 часа)

TLE

СвежийSource: Space-Track

Эпоха: Sep 14, 2026, 20:28 UTC

1 53586U 22102A   26257.85318917  .00001576  00000-0  94483-4 0  9999
2 53586  28.9949  99.0163 0004707 238.4719 121.5420 15.06176544223056

Отслеживайте CHUANG XIN 16A в реальном времени с AllMySat

Download on the App Store